PulseSat

PulseSat

GSAT0104 (GALILEO-FM4)

Last updated on Feb. 15, 2019, 3:04 a.m. UTC

1 38858U 12055B   19045.30428899  .00000030  00000-0  00000+0 0  9999
2 38858  54.9241 175.2566 0001126 243.6865 116.2642  1.70473554 39421
UTC
Height (km)
Latitude
Longitude
Inclination
Orbital Period

Next 30 passes for location: Hong Kong

Rise time Rise Azimuth (degrees) Set time Set Azimuth (degrees) Duration Max altitude (degrees)

No matching passes for this satellites

PulseSat

PulseSat is the new satellites software and hardware trackering solution by Pulsely.
Satellite Two Line Element Set source: US Air Force Space Command

Download PulseSat for iOS
© 2017 Pulsely Limited